Regional Weather Roundup
Issued by NWS

Home | Current Version | Previous Version | Graphics & Text | Print | Product List | Glossary On
Versions: 1 2 3 4 5 6 7 8 9 10 11 12 13 14 15 16 17 18 19 20 21 22 23 24 25 26 27 28 29 30 31 32 33 34 35 36 37 38 39 40 41 42 43 44 45 46 47 48 49 50
000
ASUS43 KMPX 272110
RWRMN
WEATHER ROUNDUP FOR MINNESOTA
NATIONAL WEATHER SERVICE TWIN CITIES/CHANHASSEN MN
400 PM CDT MON APR 27 2015


NOTE: "FAIR" INDICATES FEW OR NO CLOUDS BELOW 12,000 FEET WITH NO
SIGNIFICANT WEATHER AND/OR OBSTRUCTIONS TO VISIBILITY. N/A MEANS
CURRENT SKY AND/OR WEATHER CONDITIONS ARE NOT AVAILABLE.

MNZ060>063-068>070-272200-
   Twin Cities Metro

CITY           SKY/WX    TMP DP  RH WIND       PRES   REMARKS
TWIN CITIES    SUNNY     67  24  19 CALM      30.16F
ST PAUL        SUNNY     68  25  19 N8        30.17F
CRYSTAL        SUNNY     68  22  17 CALM      30.15F
BLAINE         SUNNY     70  25  18 N6        30.17F
LAKEVILLE      SUNNY     64  30  27 NE9       30.17F
EDEN PRAIRIE   SUNNY     68  27  21 VRB3      30.16F
SOUTH ST PAUL  SUNNY     67  25  20 W10       30.16F
LAKE ELMO      FAIR      68  28  22 N9        30.17F
$$
MNZ001>005-007-008-013>017-022>024-027-028-272200-
   Northwest Minnesota

CITY           SKY/WX    TMP DP  RH WIND       PRES   REMARKS
BEMIDJI        MOSUNNY   69  29  22 NE3       30.14F
HALLOCK        CLOUDY    61  41  48 NW16      30.21R
ROSEAU         PTSUNNY   68  39  34 W9        30.16F
WARROAD        MOSUNNY   66  36  32 E6        30.16S
THIEF RVR FALL PTSUNNY   70  34  26 NW8       30.17F
CROOKSTON      PTSUNNY   70  36  28 NW9       30.16F
FOSSTON        PTSUNNY   72  21  15 NW9       30.17F
DETROIT LAKES  MOSUNNY   68  27  21 NW9       30.19S
MOORHEAD       MOSUNNY   70  21  16 CALM      30.18S
PARK RAPIDS    SUNNY     72  23  16 NE8       30.15F
MAHNOMEN       FAIR      70  27  20 NW6       30.16F
$$
MNZ006-009>011-018-025>026-272200-
   North Central Minnesota

CITY           SKY/WX    TMP DP  RH WIND       PRES   REMARKS
BAUDETTE       MOSUNNY   70  28  21 NW8       30.14F
FLAG ISLAND    PTSUNNY   57  45  62 N9        30.16S
INTL FALLS     PTSUNNY   66  27  23 NE8       30.15F
WASKISH        SUNNY     70  32  24 CALM      30.16S
BIG FORK       MOSUNNY   72  25  17 W3        30.14F
LONGVILLE      SUNNY     70  21  16 N5        30.16F
GRAND RAPIDS   MOSUNNY   66  21  18 CALM      30.16F
CRANE LAKE     SUNNY     64  18  16 N6        30.18F
ORR            SUNNY     68  12  11 W5        30.13F
COOK           SUNNY     66  25  20 E5        30.15F
WALKER         FAIR      67  28  22 E5        30.15F
$$
MNZ012-019>021-037-272200-
   Northeast Minnesota

CITY           SKY/WX    TMP DP  RH WIND       PRES   REMARKS
DULUTH         SUNNY     67  25  20 VRB3      30.15F
ELY            SUNNY     64  21  19 NW7       30.16F
HIBBING        SUNNY     68  20  16 VRB6      30.15F
EVELETH        SUNNY     64  25  22 N6        30.16F
DULUTH HARBOR  SUNNY     48  30  49 NE6       30.16F
TWO HARBORS    SUNNY     66  37  34 S8        30.13F
SILVER BAY     SUNNY     61  28  29 SE8       30.14F
GRAND MARAIS     N/A     44  35  70 W8        30.19F
G MARAIS ARPRT SUNNY     54  25  32 S9        30.17S
$$
MNZ029>031-032-039>041-046>048-054>057-064-272200-
   West Central Minnesota

CITY           SKY/WX    TMP DP  RH WIND       PRES   REMARKS
FERGUS FALLS   SUNNY     68  12  11 E5        30.18F
WHEATON        SUNNY     68  27  21 W6        30.20F
MORRIS         SUNNY     72  21  15 NE5       30.17F
ALEXANDRIA     SUNNY     67  23  19 CALM      30.19F
ELBOW LAKE     FAIR      67  24  19 W7        30.18F
WADENA         SUNNY     68  30  24 W7        30.16F
GLENWOOD       SUNNY     66  21  18 CALM      30.19F
APPLETON       SUNNY     72  16  12 W3        30.18F
BENSON         SUNNY     70  16  12 CALM      30.18F
ORTONVILLE     SUNNY     68  18  14 W6        30.19F
MADISON        SUNNY     68  18  14 CALM      30.18F
WILLMAR        FAIR      68  25  19 NW3       30.20F
$$
MNZ033>034-036-042>043-049>051-058-059-272200-
   Central Minnesota

CITY           SKY/WX    TMP DP  RH WIND       PRES   REMARKS
ST CLOUD       SUNNY     69  23  17 NW6       30.16F
SAUK CENTRE    FAIR      67  27  22 NW7       30.18F
PAYNESVILLE    SUNNY     65  23  20 CALM      30.18F
AITKIN         SUNNY     70  -6   5 CALM      30.13F
PINE RIVER     SUNNY     66  32  28 N6        30.18S
BRAINERD       SUNNY     69  21  16 N13       30.16F
STAPLES        SUNNY     70  21  16 SW5       30.15F
LONG PRAIRIE   FAIR      66  25  20 CALM      30.18S
LITTLE FALLS   SUNNY     68  19  15 CALM      30.16F
LITCHFIELD     SUNNY     68  25  19 NW6       30.18F
BUFFALO        SUNNY     67  23  18 N3        30.18F
MAPLE LAKE     SUNNY     68  27  21 CALM      30.18F
$$
MNZ037-044-045-052-053-272200-
   East Central Minnesota

CITY           SKY/WX    TMP DP  RH WIND       PRES   REMARKS
PRINCETON      SUNNY     70  21  16 W3        30.16F
MORA           SUNNY     64  23  20 NW5       30.17F
CAMBRIDGE      SUNNY     70  39  32 N9        30.14F
RUSH CITY      SUNNY     67  24  20 NW5       30.15F
MOOSE LAKE     SUNNY     70  30  23 NE10      30.13F
HINCKLEY       FAIR      68  27  21 W7        30.15F
CLOQUET        SUNNY     68  18  14 NW7G20    30.14F
MCGREGOR       SUNNY     70  19  14 NE3       30.15F
$$
MNZ071>073-080-081-089-090-097-098-272200-
   Southwest Minnesota

CITY           SKY/WX    TMP DP  RH WIND       PRES   REMARKS
MONTEVIDEO     SUNNY     73  23  15 SW3       30.19F
GRANITE FALLS  SUNNY     68  22  17 CALM      30.20F
CANBY          SUNNY     67  21  17 CALM      30.19F
MARSHALL       SUNNY     68  23  18 N7        30.18F
REDWOOD FALLS  SUNNY     70  20  15 CALM      30.18F
OLIVIA         SUNNY     68  23  18 CALM      30.18S
PIPESTONE      MOSUNNY   66  18  15 NW6       30.18F
WINDOM         SUNNY     66  19  16 NE1       30.18F
WORTHINGTON    SUNNY     66  25  20 N6        30.18F
JACKSON        SUNNY     68  19  15 E12       30.17F
TRACY          SUNNY     69  22  16 N3        30.18F
SLAYTON        SUNNY     66  19  16 CALM      30.19F
$$
MNZ065>067-074>077-082>085-091>093-272200-
   South Central Minnesota

CITY           SKY/WX    TMP DP  RH WIND       PRES   REMARKS
MANKATO        SUNNY     66  25  20 NE9       30.17F
NEW ULM        SUNNY     66  19  16 CALM      30.17F
FAIRMONT       SUNNY     66  18  15 NE9       30.17F
GLENCOE        SUNNY     69  30  23 NW8       30.17F
FARIBAULT      SUNNY     66  27  22 NW6       30.17F
OWATONNA       SUNNY     66  25  20 N10       30.16F
WASECA         SUNNY     64  28  25 N13G20    30.18F
ALBERT LEA     SUNNY     66  27  22 N9        30.17F
$$
MNZ078>079-086>088-094>096-272200-
   Southeast Minnesota

CITY           SKY/WX    TMP DP  RH WIND       PRES   REMARKS
ROCHESTER      SUNNY     65  35  33 N15       30.17F
RED WING       SUNNY     70  25  18 NW7       30.14F
STANTON        SUNNY     67  23  19 NE9       30.15F
DODGE CENTER   SUNNY     64  30  27 N9G18     30.16F
WINONA         SUNNY     66  32  28 NW7       30.14F
AUSTIN         SUNNY     64  32  29 N12G17    30.15F
PRESTON        SUNNY     62  33  33 N9G18     30.16F
$$
ABBREVIATIONS USED IN REMARKS
   TC - TEMPERATURES IN CELSIUS
  WCI - WIND CHILL INDEX
   HX - HEAT INDEX
  VSB - VISIBILITY
$$



USA.gov is the U.S. government's official web portal to all federal, state and local government web resources and services.